BEIDOU-3 M26 (C48)

Last updated on Wed Aug 26 2026 00:04:16 GMT+0000 (Coordinated Universal Time)

1 58655U 23207B 26236.82742243 -.00000009 00000+0 00000+0 0 9992 2 58655 55.8188 59.9766 0000717 284.8778 75.1747 1.86229775 18105
UTC large
Height (km)
Speed (km/s)
/
Latitude / Longitude
Inclination (degrees)
Orbital Period (minutes)
Azimuth
Elevation
Range (km)
Doppler Factor

Next 0 passes for location: London (51.5072 / 0.1276)

No passes found over London.
BEIDOU-3 M26 (C48)